Weather History for KFTG - April, 2012

Change the Weather History Date:

Saturday, April 7, 2012

  Actual Average (KDEN) Record (KDEN)
Temperature  
Mean Temperature 42 °F 45 °F  
Max Temperature 59 °F 59 °F 82 °F (1978)
Min Temperature 26 °F 31 °F 9 °F (1957)
Degree Days  
Heating Degree Days 22 20  
Month to date heating degree days 142  
Since 1 July heating degree days 5344  
Cooling Degree Days 0 0  
Month to date cooling degree days 0  
Year to date cooling degree days 0  
Moisture  
Dew Point 16 °F    
Average Humidity 42    
Maximum Humidity 69    
Minimum Humidity 16    
Precipitation  
Precipitation 0.00 in 0.04 in 0.90 in (1973)
Month to date precipitation 0.26  
Year to date precipitation 1.96  
Snow  
Snow 0.00 in - - ()
Month to date snowfall  
Since 1 July snowfall  
Snow Depth -    
Sea Level Pressure  
Sea Level Pressure 30.24 in    
Wind  
Wind Speed 12 mph (ESE)    
Max Wind Speed 21 mph    
Max Gust Speed 30 mph    
Visibility 10 miles    
Events      
T = Trace of Precipitation, MM = Missing Value Source: NWS Daily Summary

Daily Weather History Graph

Daily Weather History Graph

Search for Another Location

Airport or City:

Trip Planner

Search our weather history database for the weather conditions in past years. The results will help you decide how hot, cold, wet, or windy it might be!

Date:

Astronomy

Apr. 07, 2012 Rise Set
Actual Time 6:31 AM MDT 7:28 PM MDT
Civil Twilight 6:04 AM MDT 7:56 PM MDT
Nautical Twilight 5:31 AM MDT 8:29 PM MDT
Astronomical Twilight 4:57 AM MDT 9:03 PM MDT
Moon 9:05 PM MDT (4/7) 6:45 AM MDT (4/7)
Length of Visible Light 13h 52m
Length of Day
12h 56m
Full, 99% of the Moon is Illuminated
Apr 7
Full
Apr 13
Last Quarter
Apr 21
New
Apr 29
First Quarter
May 5
Full

Hourly Weather History & Observations

Time (MDT) Temp. Windchill Dew Point Humidity Pressure Visibility Wind Dir Wind Speed Gust Speed Precip Events Conditions
12:02 AM 33.8 °F 25.8 °F 19.4 °F 56% 30.06 in 10.0 mi ENE 10.4 mph - N/A   Clear
12:22 AM 32.0 °F 24.2 °F 19.4 °F 60% 30.06 in 10.0 mi ENE 9.2 mph - N/A   Clear
12:42 AM 32.0 °F 24.8 °F 19.4 °F 60% 30.08 in 10.0 mi East 8.1 mph - N/A   Clear
1:01 AM 32.0 °F 23.6 °F 19.4 °F 60% 30.09 in 10.0 mi ESE 10.4 mph - N/A   Clear
1:22 AM 32.0 °F 24.2 °F 19.4 °F 60% 30.09 in 10.0 mi ESE 9.2 mph - N/A   Clear
1:42 AM 32.0 °F 23.0 °F 19.4 °F 60% 30.10 in 10.0 mi SE 11.5 mph - N/A   Clear
2:02 AM 32.0 °F 24.2 °F 21.2 °F 64% 30.11 in 10.0 mi SE 9.2 mph - N/A   Clear
2:22 AM 32.0 °F 23.0 °F 21.2 °F 64% 30.12 in 10.0 mi SE 11.5 mph - N/A   Clear
2:42 AM 30.2 °F 21.3 °F 21.2 °F 69% 30.13 in 10.0 mi SE 10.4 mph - N/A   Clear
3:02 AM 30.2 °F 21.3 °F 21.2 °F 69% 30.13 in 10.0 mi ESE 10.4 mph - N/A   Clear
3:22 AM 30.2 °F 21.3 °F 19.4 °F 64% 30.14 in 10.0 mi SE 10.4 mph - N/A   Clear
3:43 AM 30.2 °F 21.9 °F 19.4 °F 64% 30.16 in 10.0 mi SE 9.2 mph - N/A   Clear
4:03 AM 28.4 °F 18.5 °F 19.4 °F 69% 30.17 in 10.0 mi SSE 11.5 mph - N/A   Clear
4:23 AM 28.4 °F 18.5 °F 19.4 °F 69% 30.18 in 10.0 mi SSE 11.5 mph - N/A   Clear
4:43 AM 28.4 °F 18.5 °F 17.6 °F 64% 30.19 in 10.0 mi SSE 11.5 mph - N/A   Clear
5:03 AM 28.4 °F 18.5 °F 17.6 °F 64% 30.20 in 10.0 mi SSE 11.5 mph - N/A   Clear
5:23 AM 28.4 °F 19.1 °F 17.6 °F 64% 30.21 in 10.0 mi SSE 10.4 mph - N/A   Clear
5:43 AM 26.6 °F 16.8 °F 17.6 °F 69% 30.21 in 10.0 mi SSE 10.4 mph - N/A   Clear
6:03 AM 26.6 °F 16.2 °F 17.6 °F 69% 30.22 in 10.0 mi SSE 11.5 mph - N/A   Clear
6:23 AM 26.6 °F 16.8 °F 17.6 °F 69% 30.23 in 10.0 mi SSE 10.4 mph - N/A   Clear
6:43 AM 26.6 °F 17.5 °F 17.6 °F 69% 30.23 in 10.0 mi SSE 9.2 mph - N/A   Clear
7:02 AM 26.6 °F 16.2 °F 17.6 °F 69% 30.23 in 10.0 mi SSE 11.5 mph - N/A   Clear
7:23 AM 28.4 °F 19.1 °F 17.6 °F 64% 30.25 in 10.0 mi SE 10.4 mph - N/A   Clear
7:43 AM 32.0 °F 23.6 °F 14.0 °F 48% 30.26 in 10.0 mi SE 10.4 mph - N/A   Clear
8:03 AM 32.0 °F 22.1 °F 12.2 °F 44% 30.27 in 10.0 mi SE 13.8 mph - N/A   Clear
8:23 AM 33.8 °F 23.5 °F 10.4 °F 38% 30.28 in 10.0 mi SE 16.1 mph - N/A   Clear
8:42 AM 35.6 °F 26.6 °F 12.2 °F 38% 30.28 in 10.0 mi SE 13.8 mph - N/A   Clear
9:02 AM 35.6 °F 26.6 °F 10.4 °F 35% 30.29 in 10.0 mi ESE 13.8 mph - N/A   Clear
9:22 AM 37.4 °F 28.2 °F 12.2 °F 36% 30.29 in 10.0 mi SE 16.1 mph 21.9 mph N/A   Clear
9:43 AM 37.4 °F 28.2 °F 12.2 °F 36% 30.30 in 10.0 mi SE 16.1 mph 21.9 mph N/A   Clear
10:02 AM 41.0 °F 31.9 °F 12.2 °F 31% 30.30 in 10.0 mi SE 19.6 mph 23.0 mph N/A   Clear
10:23 AM 41.0 °F 32.2 °F 12.2 °F 31% 30.31 in 10.0 mi SE 18.4 mph 23.0 mph N/A   Clear
10:43 AM 42.8 °F 35.1 °F 14.0 °F 31% 30.32 in 10.0 mi ESE 16.1 mph 24.2 mph N/A   Clear
11:03 AM 42.8 °F 35.1 °F 14.0 °F 31% 30.32 in 10.0 mi ESE 16.1 mph 19.6 mph N/A   Clear
11:23 AM 44.6 °F 37.4 °F 14.0 °F 29% 30.32 in 10.0 mi ESE 16.1 mph 20.7 mph N/A   Clear
11:43 AM 46.4 °F 40.1 °F 14.0 °F 27% 30.32 in 10.0 mi ESE 15.0 mph - N/A   Clear
12:03 PM 48.2 °F - 17.6 °F 30% 30.32 in 10.0 mi SE 15.0 mph 21.9 mph N/A   Clear
12:23 PM 50.0 °F - 15.8 °F 26% 30.32 in 10.0 mi East 15.0 mph 19.6 mph N/A   Clear
12:43 PM 51.8 °F - 17.6 °F 26% 30.32 in 10.0 mi East 12.7 mph 19.6 mph N/A   Clear
1:03 PM 51.8 °F - 14.0 °F 22% 30.32 in 10.0 mi East 11.5 mph 18.4 mph N/A   Clear
1:22 PM 53.6 °F - 17.6 °F 24% 30.32 in 10.0 mi East 13.8 mph 23.0 mph N/A   Clear
1:43 PM 53.6 °F - 15.8 °F 22% 30.31 in 10.0 mi ENE 12.7 mph 17.3 mph N/A   Clear
2:03 PM 53.6 °F - 17.6 °F 24% 30.31 in 10.0 mi ESE 15.0 mph 19.6 mph N/A   Clear
2:23 PM 55.4 °F - 15.8 °F 21% 30.31 in 10.0 mi East 15.0 mph 21.9 mph N/A   Clear
2:43 PM 55.4 °F - 14.0 °F 20% 30.30 in 10.0 mi East 10.4 mph 19.6 mph N/A   Clear
3:03 PM 55.4 °F - 10.4 °F 17% 30.29 in 10.0 mi SE 13.8 mph 19.6 mph N/A   Clear
3:22 PM 55.4 °F - 12.2 °F 18% 30.29 in 10.0 mi East 11.5 mph 19.6 mph N/A   Clear
3:43 PM 55.4 °F - 14.0 °F 20% 30.28 in 10.0 mi East 13.8 mph 20.7 mph N/A   Clear
4:03 PM 55.4 °F - 15.8 °F 21% 30.28 in 10.0 mi East 17.3 mph 24.2 mph N/A   Clear
4:23 PM 57.2 °F - 17.6 °F 21% 30.28 in 10.0 mi ESE 16.1 mph 24.2 mph N/A   Clear
4:43 PM 55.4 °F - 17.6 °F 23% 30.27 in 10.0 mi East 15.0 mph 23.0 mph N/A   Clear
5:02 PM 57.2 °F - 19.4 °F 23% 30.26 in 10.0 mi East 17.3 mph 21.9 mph N/A   Clear
5:23 PM 59.0 °F - 12.2 °F 16% 30.26 in 10.0 mi SE 19.6 mph 28.8 mph N/A   Clear
5:42 PM 59.0 °F - 12.2 °F 16% 30.27 in 10.0 mi SE 18.4 mph 25.3 mph N/A   Clear
6:03 PM 57.2 °F - 14.0 °F 18% 30.27 in 10.0 mi SE 20.7 mph 29.9 mph N/A   Clear
6:23 PM 55.4 °F - 14.0 °F 20% 30.27 in 10.0 mi SSE 20.7 mph 27.6 mph N/A   Clear
6:42 PM 55.4 °F - 14.0 °F 20% 30.28 in 10.0 mi SSE 18.4 mph 26.5 mph N/A   Clear
7:03 PM 53.6 °F - 14.0 °F 21% 30.28 in 10.0 mi SSE 21.9 mph 27.6 mph N/A   Clear
7:23 PM 51.8 °F - 15.8 °F 24% 30.27 in 10.0 mi SSE 18.4 mph 21.9 mph N/A   Clear
7:43 PM 50.0 °F - 17.6 °F 28% 30.27 in 10.0 mi SSE 16.1 mph 21.9 mph N/A   Clear
8:03 PM 46.4 °F 40.4 °F 17.6 °F 32% 30.28 in 10.0 mi SSE 13.8 mph - N/A   Clear
8:23 PM 46.4 °F 40.1 °F 17.6 °F 32% 30.29 in 10.0 mi SE 15.0 mph - N/A   Clear
8:43 PM 42.8 °F 36.6 °F 17.6 °F 36% 30.29 in 10.0 mi ESE 11.5 mph - N/A   Clear
9:03 PM 42.8 °F 35.4 °F 19.4 °F 39% 30.30 in 10.0 mi SSE 15.0 mph - N/A   Clear
9:23 PM 42.8 °F 36.2 °F 19.4 °F 39% 30.30 in 10.0 mi SSE 12.7 mph - N/A   Clear
9:42 PM 42.8 °F 36.6 °F 19.4 °F 39% 30.30 in 10.0 mi South 11.5 mph - N/A   Clear
10:22 PM 42.8 °F 35.4 °F 19.4 °F 39% 30.30 in 10.0 mi South 15.0 mph 20.7 mph N/A   Clear
10:42 PM 42.8 °F 35.4 °F 21.2 °F 42% 30.30 in 10.0 mi South 15.0 mph - N/A   Clear
11:02 PM 42.8 °F 35.8 °F 21.2 °F 42% 30.30 in 10.0 mi SSE 13.8 mph - N/A   Clear
11:22 PM 41.0 °F 33.9 °F 21.2 °F 45% 30.29 in 10.0 mi SSE 12.7 mph - N/A   Clear
11:43 PM 41.0 °F 34.7 °F 21.2 °F 45% 30.29 in 10.0 mi South 10.4 mph - N/A   Clear